Tracking 19562 objects as of 25-Mar-2019
HD Live streaming from Space Station
objects crossing your sky now

LEMUR 2 TINYKEV

Track LEMUR 2 TINYKEV now!
10-day predictions
LEMUR 2 TINYKEV is classified as:


NORAD ID: 43883
Int'l Code: 2018-111H
Perigee: 577.5 km
Apogee: 592.5 km
Inclination: 97.7 °
Period: 96.2 minutes
Semi major axis: 6955 km
RCS: Unknown
Launch date: December 27, 2018
Source: United States (US)
Launch site: VOSTOCHNY COSMODROME (VOSTO)
aabbcc
Your satellite tracking list
Your tracking list is empty




NASA's NSSDC Master Catalog

Two Line Element Set (TLE):
1 43883U 18111H   19084.21223574  .00000581  00000-0  56324-4 0  9994
2 43883  97.7248 353.5262 0010779 316.1237  43.9127 14.96454898 11161
Source of the keplerian elements: AFSPC